Observations

BIA Manual Entry


Date Temp Humidity Rainfall Dew Point Wind Direction Wind Speed Wind Pressure Condition Visibility
2025-02-24 22:00:39 29 82 0.0 25 040 7.6 1014 Partly Cloudy (Night) 10 KM
2025-02-24 20:58:54 29 80 0.0 25 040 9.5 1013 Partly Cloudy (Night) 10 km
2025-02-24 19:59:12 29 79 0.0 25 020 15.2 1012 Partly Cloudy (Night) 10 km
2025-02-24 18:58:23 29 77 0.0 24 010 17.1 1011 Partly Cloudy (Night) 10 km
2025-02-24 17:59:50 30 71 0.0 24 350 17.1 1010 Partly Cloudy (Night) 15 km
2025-02-24 17:00:28 30 71 25 350 19.0 1010 Partly Cloudy (Night) 20 KM
2025-02-24 15:59:26 31 67 24 350 22.8 1010 Partly Cloudy (Night) 20 KM
2025-02-24 15:59:05 31 67 350 22 Partly Cloudy (Night)
2025-02-24 14:57:54 33 51 22 030 13.3 1011 Partly Cloudy (Night) 20 KM
2025-02-24 13:59:21 32 59 23 120 11.4 1011 Partly Cloudy (Night) 20 KM
2025-02-24 12:57:28 32 57 0.0 23 080 11.4 1013 Partly Cloudy (Night) 20 KM
2025-02-24 11:58:57 31 69 0.0 23 080 13.3 1014 Partly Cloudy (Night) 20 KM
2025-02-24 11:01:54 30 68 24 100 13.3 1014 Partly Cloudy (Day) 20 KM
2025-02-24 09:59:08 28 84 25 160 9.5 1014 Partly Cloudy (Night) 20 KM
2025-02-24 09:00:59 28 80 24 070 1.9 1014 Partly Cloudy (Night) 20 KM
2025-02-24 08:02:53 26 90 24 200 1.9 1013 Partly Cloudy (Day) 15KM
2025-02-24 07:05:25 24 98 24 120 3.8 1012 Partly Cloudy (Day) 10KM
2025-02-24 06:00:09 24 96 24 220 5.7 1012 Cloudy 10KM
2025-02-24 05:01:27 25 94 24 190 9.5 1011 Cloudy 10KM
2025-02-24 04:00:31 25 96 24 200 7.6 1011 Cloudy 10KM
2025-02-24 03:00:42 24 97 24 160 5.7 1012 Cloudy 10KM
2025-02-24 02:00:35 24 97 24 160 1.9 1012 Partly Cloudy (Night) 10KM
2025-02-24 01:04:43 24 97 24 200 7.6 1013 Lightning 10KM
2025-02-24 00:02:23 25 98 24 210 3.8 1013 Night Thunderstorm 10KM
2025-02-23 22:59:58 24 99 24 180 1.9 1013 Thundershowers 10KM